Simultaneous Nadir Overpasses (SNOs) Predictions

Prediction of SNOs between METOP-B and NOAA-19 Satellite Orbit:

Table of predicted SNOs for the next 14.0 days since TLE Epoch: 11/21/2020
Index Date (METOP-B) Time (METOP-B) Lat,Lon (METOP-B) SZA (METOP-B ) Date (NOAA-19) Time (NOAA-19) Lat,Lon (NOAA-19) SZA (NOAA-19 ) Distance(km) Time Diff (sec)
1 11/23/2020 12:53:34 -80.28,-168.03 78.14 11/23/2020 12:52:25 -80.28,-168.09 78.16 1.09 69
2 11/23/2020 13:44:15 80.27, -0.83 101.86 11/23/2020 13:43:20 80.28, -0.80 101.85 1.39 55
3 11/23/2020 14:34:56 -80.27, 166.51 78.14 11/23/2020 14:34:25 -80.27, 166.57 78.14 1.29 31
4 11/23/2020 15:25:37 80.26, -26.29 101.85 11/23/2020 15:25:20 80.27, -26.14 101.87 3.15 17
5 11/23/2020 16:16:17 -80.28, 141.35 78.10 11/23/2020 16:16:25 -80.26, 141.23 78.13 3.45 8
6 11/23/2020 17:06:58 80.27, -51.44 101.89 11/23/2020 17:07:20 80.26, -51.48 101.89 1.63 22
7 11/23/2020 17:57:39 -80.27, 115.89 78.11 11/23/2020 17:58:25 -80.25, 115.89 78.11 2.45 46
8 11/23/2020 18:48:20 80.26, -76.91 101.89 11/23/2020 18:49:20 80.25, -76.82 101.90 2.06 60
9 12/04/2020 14:57:41 80.28, -19.04 103.64 12/04/2020 14:56:31 80.29, -18.92 103.64 2.79 70
10 12/04/2020 15:48:21 -80.30, 148.60 76.32 12/04/2020 15:47:35 -80.28, 148.49 76.36 3.02 46
11 12/04/2020 16:39:02 80.29, -44.19 103.67 12/04/2020 16:38:31 80.28, -44.26 103.65 1.74 31
12 12/04/2020 17:29:43 -80.29, 123.13 76.33 12/04/2020 17:29:35 -80.27, 123.15 76.35 2.11 8
13 12/04/2020 18:20:24 80.28, -69.65 103.66 12/04/2020 18:20:31 80.28, -69.60 103.66 1.41 7
14 12/04/2020 19:11:05 -80.28, 97.66 76.34 12/04/2020 19:11:35 -80.27, 97.80 76.34 3.23 30
15 12/04/2020 20:01:46 80.27, -95.12 103.65 12/04/2020 20:02:32 80.29, -95.27 103.67 3.11 46
